Regional Weather Roundup
Issued by NWS

Home | Current Version | Previous Version | Graphics & Text | Print | Product List | Glossary On
Versions: 1 2 3 4 5 6 7 8 9 10 11 12 13 14 15 16 17 18 19 20 21 22 23 24 25 26 27 28 29 30 31 32 33 34 35 36 37 38 39 40 41 42 43 44 45 46 47 48 49 50
000
ASUS43 KLOT 071021
RWRIL

ILLINOIS REGIONAL WEATHER ROUNDUP
NATIONAL WEATHER SERVICE CHICAGO/ROMEOVILLE IL
500 AM CDT TUE JUL 07 2015

NOTE: "FAIR" INDICATES FEW OR NO CLOUDS BELOW 12,000 FEET WITH NO
SIGNIFICANT WEATHER AND/OR OBSTRUCTIONS TO VISIBILITY.

* THESE STATIONS ARE NOT UNDER NWS QUALITY CONTROL. THEY ALSO MAY NOT
  REPORT WEATHER SUCH AS PRECIPITATION OR FOG.

ILZ001-002-007-009-015-016-024-071100-
NORTHWEST ILLINOIS

CITY           SKY/WX    TMP DP  RH WIND       PRES   REMARKS
MOLINE         CLOUDY    64  57  78 N9        29.93R HAZE
STERLING*      CLOUDY    63  61  94 N7        29.93R
SAVANNA*       CLEAR     62  57  83 N7        29.93R HAZE
$$

ILZ003-004-008-010-011-017-018-071100-
NORTH CENTRAL ILLINOIS

CITY           SKY/WX    TMP DP  RH WIND       PRES   REMARKS
ROCKFORD       CLOUDY    63  58  83 NE18G25   29.92R FOG
FREEPORT*      CLOUDY    61  57  88 N12       29.94R FOG
ROCHELLE*      DRIZZLE   62  60  96 N10G16    29.91R
DE KALB*       LGT RAIN  60  59  96 N10       29.90R
PERU*          CLOUDY    65  63  93 N13       29.89R
$$

ILZ005-006-012>014-019>023-071100-
NORTHEAST ILLINOIS

CITY           SKY/WX    TMP DP  RH WIND       PRES   REMARKS
CHICAGO-OHARE  RAIN      59  57  93 N20       29.89R FOG
CHICAGO-MIDWAY RAIN      63  59  87 N21G31    29.87R FOG
AURORA         CLOUDY    66  62  87 N7        29.87S
LANSING*       RAIN      70  68  91 NW3       29.86S
JOLIET*        RAIN      72  71  98 CALM      29.85F
WAUKEGAN       LGT RAIN  58  57  97 N13G21    29.90R FOG
DUPAGE AIRPORT RAIN      65  63  93 N10       29.87R FOG
KANKAKEE*      LGT RAIN  71  70  98 SW3       29.86F
WHEELING       LGT RAIN  60  57  89 N15       29.91R FOG
MORRIS*        LGT RAIN  71  70  96 W8        29.83R
ROMEOVILLE*    RAIN      70  70  99 SW3       29.85S
NORTHERLY ISL    N/A     60  58  92 N25         N/A
$$

LMZ740>746-071100-
SOUTHERN LAKE MICHIGAN

STATION/POSITION SKY/WX   TEMP    WIND        PRES    VSBY  WAVE
                          AIR SEA DIR/SP/G                  HT/PER
                          (F)     (DEG/KT/KT) (MB)    (MI)  (FT/S)
HARRISON CRIB              60     350/ 26/ 31   N/A
BURNHAM HARBOR             60     340/ 14/ 24   N/A
CALUMET HARBOR             71     200/  5/  7   N/A
BURNS HARBOR               71     220/  7/  9 1011.2F
MICHIGAN CITY              71     200/  9/  9   N/A
MICHIGAN CITY 6N           69 67  240/  6/  8   N/A           1
ST. JOSEPH                 68 66  240/  8/ 10   N/A           1
$$

ILZ025>027-034>036-040-047-049-050-058-095>099-071100-
WEST-CENTRAL ILLINOIS

CITY           SKY/WX    TMP DP  RH WIND       PRES   REMARKS
QUINCY         LGT RAIN  66  64  93 N14       29.91R FOG
GALESBURG*     CLOUDY    62  61  95 N13       29.93R FOG
MACOMB*        LGT RAIN  63  62  97 N12G18    29.95R
JACKSONVILLE*  LGT RAIN  72  71  95 CALM      29.88S
PITTSFIELD*    LGT RAIN  72  70  94 CALM      29.89S
$$

ILZ028>032-037-038-041>044-048-051>054-059>061-071100-
CENTRAL ILLINOIS

CITY           SKY/WX    TMP DP  RH WIND       PRES   REMARKS
PONTIAC        LGT RAIN  71  71  99 CALM      29.88R
BLOOMINGTON    LGT RAIN  72  72 100 SW7       29.90R
DECATUR        RAIN      73  71  93 W7G21     29.89R FOG
PEORIA         LGT RAIN  70  66  87 N6        29.89R FOG
LACON*         RAIN      66  65  95 N8        29.88R
LINCOLN*       HVY RAIN  73  71  94 SW3       29.90R
SPRINGFIELD    HVY RAIN  73  70  90 W5        29.88R FOG
TAYLORVILLE    CLOUDY    73  72  94 NW9G18    29.88S
$$

ILZ033-039-045-046-055>057-062-063-071100-
EAST-CENTRAL ILLINOIS

CITY           SKY/WX    TMP DP  RH WIND       PRES   REMARKS
CHAMPAIGN      LGT RAIN  74  72  93 W8        29.89R
DANVILLE*      HVY RAIN  74  73  95 SW9       29.85S
RANTOUL*       HVY RAIN  73  72  95 W6G18     29.88R
MATTOON        CLOUDY    75  73  93 S10       29.88S
PARIS*         MOCLDY    75  73  95 S9        29.90S
$$

ILZ079-100>102-071100-
SOUTHWEST ILLINOIS

CITY           SKY/WX    TMP DP  RH WIND       PRES   REMARKS
ALTON          CLOUDY    77  76  98 W7        29.88F
BELLEVILLE     CLOUDY    77  77 100 SW6       29.88R
CAHOKIA*       CLOUDY    79  70  74 SW8       29.88S HX  82
SPARTA*        CLOUDY    76  73  90 SW7       29.92R
$$

ILZ064>066-069>071-074>076-080>082-084>086-088>090-092>094-071100-
SOUTH-CENTRAL ILLINOIS

CITY           SKY/WX    TMP DP  RH WIND       PRES   REMARKS
CARBONDALE     MOCLDY    76  71  85 S10       29.92S
CAIRO*         CLOUDY    75  74  96 S6        29.95S
EFFINGHAM*     CLOUDY    75  71  88 SE6       29.91S
MARION         CLOUDY    75  73  94 S8        29.94S
MT. VERNON     CLOUDY    75  70  83 SW9G16    29.92S
CENTRALIA*     MOCLDY    76  70  84 SW8       29.90S
SALEM*         CLOUDY    78  73  83 SW7       29.91R HX  81
$$

ILZ067-068-072-073-078-083-087-091-071100-
SOUTHEAST ILLINOIS

CITY           SKY/WX    TMP DP  RH WIND       PRES   REMARKS
LAWRENCEVILLE  MOCLDY    76  73  91 S10       29.92F
FLORA*         MOCLDY    75  72  91 S8        29.91F
FAIRFIELD*     MOCLDY    76  73  91 S8        29.91F
HARRISBURG*    MOCLDY    75  74  95 S8        29.96R
ROBINSON*      CLOUDY    75  73  92 S7        29.92S
CARMI*         MOCLDY    75  68  79 S8        29.93F
$$

ABBREVIATIONS USED IN REMARKS
   TC - TEMPERATURE IN CELSIUS
  WCI - WIND CHILL INDEX
   HX - HEAT INDEX
  VSB - VISIBILITY
$$




USA.gov is the U.S. government's official web portal to all federal, state and local government web resources and services.